| time (UTC) | temp F | wind direction | speed MPH | gust MPH | rain 1hr in | rain 24hr in | rain mn in | humidity % | barometer mb |
| 20260904133043 | 59 | 174 | 0.0 | 0.0 | 0.00 | 0.00 | 0.00 | 94 | 1012.0 |
| 20260904132537 | 59 | 174 | 0.0 | 0.0 | 0.00 | 0.00 | 0.00 | 94 | 1012.1 |
| 20260904132031 | 59 | 109 | 0.0 | 0.0 | 0.00 | 0.00 | 0.00 | 94 | 1012.2 |
| 20260904131525 | 59 | 110 | 0.0 | 0.0 | 0.00 | 0.00 | 0.00 | 94 | 1012.1 |
| 20260904131019 | 59 | 148 | 0.0 | 0.0 | 0.00 | 0.00 | 0.00 | 94 | 1012.1 |
| 20260904130514 | 59 | 115 | 0.0 | 0.0 | 0.00 | 0.00 | 0.00 | 95 | 1012.0 |
| 20260904130008 | 59 | 164 | 0.0 | 0.0 | 0.00 | 0.00 | 0.00 | 95 | 1011.9 |
| 20260904125501 | 59 | 164 | 0.0 | 0.0 | 0.00 | 0.00 | 0.00 | 94 | 1011.9 |
| 20260904124955 | 59 | 164 | 0.0 | 0.0 | 0.00 | 0.00 | 0.00 | 94 | 1011.9 |
| 20260904124449 | 59 | 114 | 0.0 | 0.0 | 0.00 | 0.00 | 0.00 | 95 | 1011.8 |
| 20260904123943 | 59 | 114 | 0.0 | 0.0 | 0.00 | 0.00 | 0.00 | 95 | 1011.8 |
| 20260904123437 | 59 | 114 | 0.0 | 0.0 | 0.00 | 0.00 | 0.00 | 95 | 1011.9 |
| 20260904122931 | 59 | 114 | 0.0 | 0.0 | 0.00 | 0.00 | 0.00 | 95 | 1011.8 |
| 20260904122913 | 59 | 114 | 0.0 | 0.0 | 0.00 | 0.00 | 0.00 | 95 | 1011.9 |
| 20260904121919 | 59 | 114 | 0.0 | 0.0 | 0.00 | 0.00 | 0.00 | 94 | 1011.8 |
| 20260904121413 | 59 | 114 | 0.0 | 0.0 | 0.00 | 0.00 | 0.00 | 95 | 1011.8 |
| 20260904120907 | 59 | 182 | 0.0 | 0.0 | 0.00 | 0.00 | 0.00 | 95 | 1011.8 |
| 20260904120401 | 59 | 182 | 0.0 | 0.0 | 0.00 | 0.00 | 0.00 | 95 | 1011.9 |
| 20260904115855 | 59 | 114 | 0.0 | 0.0 | 0.00 | 0.00 | 0.00 | 94 | 1012.0 |
| 20260904115614 | 59 | 113 | 0.0 | 0.0 | 0.00 | 0.00 | 0.00 | 94 | 1011.9 |
| 20260904114843 | 59 | 182 | 0.0 | 0.0 | 0.00 | 0.00 | 0.00 | 95 | 1012.0 |
| 20260904114337 | 59 | 109 | 0.0 | 0.0 | 0.00 | 0.00 | 0.00 | 95 | 1011.9 |
| 20260904113837 | 59 | 119 | 0.0 | 0.0 | 0.00 | 0.00 | 0.00 | 95 | 1012.1 |
| 20260904113600 | 59 | 165 | 0.0 | 0.0 | 0.00 | 0.00 | 0.00 | 95 | 1012.1 |
| 20260904112840 | 59 | 165 | 0.0 | 0.0 | 0.00 | 0.00 | 0.00 | 95 | 1012.1 |
| 20260904112338 | 59 | 106 | 0.0 | 0.0 | 0.00 | 0.00 | 0.00 | 95 | 1012.1 |
| 20260904111838 | 59 | 106 | 0.0 | 0.0 | 0.00 | 0.00 | 0.00 | 95 | 1012.2 |
| 20260904111333 | 59 | 210 | 0.0 | 0.0 | 0.00 | 0.00 | 0.00 | 95 | 1012.2 |
| 20260904110833 | 59 | 209 | 0.0 | 0.0 | 0.00 | 0.00 | 0.00 | 95 | 1012.1 |
| 20260904110554 | 59 | 174 | 0.0 | 0.0 | 0.00 | 0.00 | 0.00 | 95 | 1012.2 |
| 20260904105832 | 59 | 114 | 0.0 | 0.0 | 0.00 | 0.00 | 0.00 | 95 | 1012.1 |
| 20260904105331 | 59 | 168 | 0.0 | 0.0 | 0.00 | 0.00 | 0.00 | 95 | 1012.0 |
| 20260904104830 | 59 | 168 | 0.0 | 0.0 | 0.00 | 0.00 | 0.00 | 95 | 1012.0 |
| 20260904104331 | 59 | 196 | 0.0 | 0.0 | 0.00 | 0.00 | 0.00 | 95 | 1012.0 |
| 20260904103830 | 59 | 207 | 0.0 | 0.0 | 0.00 | 0.00 | 0.00 | 95 | 1012.0 |
| 20260904103815 | 59 | 186 | 0.0 | 0.0 | 0.00 | 0.00 | 0.00 | 95 | 1011.9 |
| 20260904103053 | 59 | 202 | 0.0 | 0.0 | 0.00 | 0.00 | 0.00 | 95 | 1011.8 |
| 20260904102331 | 59 | 202 | 0.0 | 0.0 | 0.00 | 0.00 | 0.00 | 95 | 1011.8 |
| 20260904101831 | 59 | 202 | 0.0 | 0.0 | 0.00 | 0.00 | 0.00 | 95 | 1011.6 |
| 20260904101328 | 59 | 202 | 0.0 | 0.0 | 0.00 | 0.00 | 0.00 | 95 | 1011.7 |
| 20260904101050 | 59 | 202 | 0.0 | 0.0 | 0.00 | 0.00 | 0.00 | 95 | 1011.7 |
| 20260904100328 | 59 | 186 | 0.0 | 0.0 | 0.00 | 0.00 | 0.00 | 94 | 1011.8 |
| 20260904100049 | 59 | 188 | 0.0 | 0.0 | 0.00 | 0.00 | 0.00 | 94 | 1011.9 |
| 20260904095328 | 59 | 186 | 0.0 | 0.0 | 0.00 | 0.00 | 0.00 | 94 | 1011.8 |
| 20260904094828 | 59 | 186 | 0.0 | 0.0 | 0.00 | 0.00 | 0.00 | 94 | 1011.7 |
| 20260904094328 | 59 | 186 | 0.0 | 0.0 | 0.00 | 0.00 | 0.00 | 94 | 1011.6 |
| 20260904093828 | 59 | 202 | 0.0 | 0.0 | 0.00 | 0.00 | 0.00 | 94 | 1011.6 |
| 20260904093325 | 59 | 221 | 0.0 | 0.0 | 0.00 | 0.00 | 0.00 | 94 | 1011.5 |
| 20260904093318 | 59 | 221 | 0.0 | 0.0 | 0.00 | 0.00 | 0.00 | 94 | 1011.6 |
| 20260904092327 | 59 | 185 | 0.0 | 0.0 | 0.00 | 0.00 | 0.00 | 94 | 1011.5 |
| 20260904091819 | 59 | 182 | 0.0 | 0.0 | 0.00 | 0.00 | 0.00 | 94 | 1011.7 |
| 20260904091321 | 59 | 196 | 0.0 | 0.0 | 0.00 | 0.00 | 0.00 | 94 | 1011.8 |
| 20260904090821 | 59 | 184 | 0.0 | 0.0 | 0.00 | 0.00 | 0.00 | 94 | 1011.7 |
| 20260904090321 | 59 | 166 | 0.0 | 0.0 | 0.00 | 0.00 | 0.00 | 93 | 1011.7 |
| 20260904090038 | 59 | 149 | 0.0 | 0.0 | 0.00 | 0.00 | 0.00 | 93 | 1011.8 |
| 20260904085318 | 59 | 149 | 0.0 | 0.0 | 0.00 | 0.00 | 0.00 | 93 | 1011.8 |
| 20260904084818 | 58 | 149 | 0.0 | 0.0 | 0.00 | 0.00 | 0.00 | 93 | 1011.9 |
| 20260904084546 | 58 | 149 | 0.0 | 0.0 | 0.00 | 0.00 | 0.00 | 93 | 1011.8 |
| 20260904084047 | 58 | 149 | 0.0 | 0.0 | 0.00 | 0.00 | 0.00 | 93 | 1011.9 |
| 20260904083315 | 59 | 149 | 0.0 | 0.0 | 0.00 | 0.00 | 0.00 | 92 | 1011.9 |
| 20260904083255 | 59 | 149 | 0.0 | 0.0 | 0.00 | 0.00 | 0.00 | 93 | 1011.8 |
| 20260904082315 | 59 | 149 | 0.0 | 0.0 | 0.00 | 0.00 | 0.00 | 93 | 1012.0 |
| 20260904081813 | 59 | 149 | 0.0 | 0.0 | 0.00 | 0.00 | 0.00 | 92 | 1012.0 |
| 20260904081532 | 59 | 149 | 0.0 | 0.0 | 0.00 | 0.00 | 0.00 | 92 | 1012.1 |
| 20260904081406 | 59 | 149 | 0.0 | 0.0 | 0.00 | 0.00 | 0.00 | 92 | 1012.1 |
| 20260904080309 | 59 | 149 | 0.0 | 0.0 | 0.00 | 0.00 | 0.00 | 92 | 1012.1 |
| 20260904075810 | 59 | 149 | 0.0 | 0.0 | 0.00 | 0.00 | 0.00 | 92 | 1012.1 |
| 20260904075311 | 59 | 149 | 0.0 | 0.0 | 0.00 | 0.00 | 0.00 | 92 | 1012.1 |
| 20260904074810 | 59 | 149 | 0.0 | 0.0 | 0.00 | 0.00 | 0.00 | 92 | 1012.1 |
| 20260904074312 | 59 | 149 | 0.0 | 0.0 | 0.00 | 0.00 | 0.00 | 92 | 1012.1 |
| 20260904074034 | 59 | 149 | 0.0 | 0.0 | 0.00 | 0.00 | 0.00 | 92 | 1012.3 |
| 20260904073312 | 59 | 149 | 0.0 | 0.0 | 0.00 | 0.00 | 0.00 | 92 | 1012.1 |
| 20260904072811 | 59 | 149 | 0.0 | 0.0 | 0.00 | 0.00 | 0.00 | 92 | 1012.0 |
| 20260904072311 | 59 | 149 | 0.0 | 0.0 | 0.00 | 0.00 | 0.00 | 92 | 1012.2 |
| 20260904071809 | 59 | 149 | 0.0 | 0.0 | 0.00 | 0.00 | 0.00 | 92 | 1012.3 |
| 20260904071309 | 59 | 149 | 0.0 | 0.0 | 0.00 | 0.00 | 0.00 | 92 | 1012.2 |
| 20260904071300 | 59 | 149 | 0.0 | 0.0 | 0.00 | 0.00 | 0.00 | 91 | 1012.2 |
| 20260904070312 | 60 | 149 | 0.0 | 0.0 | 0.00 | 0.00 | 0.00 | 92 | 1012.2 |
| 20260904065812 | 60 | 149 | 0.0 | 0.0 | 0.00 | 0.00 | 0.00 | 92 | 1012.3 |
| 20260904065307 | 60 | 149 | 0.0 | 0.0 | 0.00 | 0.00 | 0.00 | 92 | 1012.3 |
| 20260904064800 | 60 | 149 | 0.0 | 0.0 | 0.00 | 0.00 | 0.00 | 91 | 1012.3 |
| 20260904064255 | 60 | 149 | 0.0 | 0.0 | 0.00 | 0.00 | 0.00 | 91 | 1012.3 |
| 20260904063748 | 60 | 149 | 0.0 | 0.0 | 0.00 | 0.00 | 0.00 | 91 | 1012.2 |
| 20260904063243 | 60 | 144 | 0.0 | 0.0 | 0.00 | 0.00 | 0.00 | 91 | 1012.1 |
| 20260904062736 | 60 | 144 | 0.0 | 0.0 | 0.00 | 0.00 | 0.00 | 91 | 1012.1 |
| 20260904062230 | 60 | 144 | 0.0 | 0.0 | 0.00 | 0.00 | 0.00 | 91 | 1012.2 |
| 20260904061724 | 60 | 210 | 0.0 | 0.0 | 0.00 | 0.00 | 0.00 | 90 | 1012.1 |
| 20260904061218 | 60 | 210 | 0.0 | 0.0 | 0.00 | 0.00 | 0.00 | 90 | 1012.1 |
| 20260904060712 | 60 | 210 | 0.0 | 0.0 | 0.00 | 0.00 | 0.00 | 90 | 1012.1 |
| 20260904060206 | 60 | 210 | 0.0 | 0.0 | 0.00 | 0.00 | 0.00 | 90 | 1012.0 |
| 20260904055700 | 60 | 210 | 0.0 | 0.0 | 0.00 | 0.00 | 0.00 | 90 | 1012.1 |
| 20260904055154 | 60 | 210 | 0.0 | 0.0 | 0.00 | 0.00 | 0.00 | 90 | 1012.2 |
| 20260904054648 | 60 | 210 | 0.0 | 0.0 | 0.00 | 0.00 | 0.00 | 89 | 1012.2 |
| 20260904054142 | 60 | 210 | 0.0 | 0.0 | 0.00 | 0.00 | 0.00 | 90 | 1012.2 |
| 20260904053635 | 60 | 210 | 0.0 | 0.0 | 0.00 | 0.00 | 0.00 | 90 | 1012.2 |
| 20260904053130 | 60 | 210 | 0.0 | 0.0 | 0.00 | 0.00 | 0.00 | 89 | 1012.1 |
| 20260904053107 | 61 | 210 | 0.0 | 0.0 | 0.00 | 0.00 | 0.00 | 89 | 1012.2 |
| 20260904052118 | 61 | 210 | 0.0 | 0.0 | 0.00 | 0.00 | 0.00 | 89 | 1012.2 |
| 20260904051843 | 61 | 210 | 0.0 | 0.0 | 0.00 | 0.00 | 0.00 | 89 | 1012.2 |
| 20260904051106 | 61 | 210 | 0.0 | 0.0 | 0.00 | 0.00 | 0.00 | 89 | 1012.4 |
| 20260904050827 | 61 | 210 | 0.0 | 0.0 | 0.00 | 0.00 | 0.00 | 89 | 1012.3 |
| 20260904050314 | 61 | 210 | 0.0 | 0.0 | 0.00 | 0.00 | 0.00 | 88 | 1012.4 |
| 20260904045549 | 61 | 210 | 0.0 | 0.0 | 0.00 | 0.00 | 0.00 | 89 | 1012.4 |
| 20260904045042 | 61 | 210 | 0.0 | 0.0 | 0.00 | 0.00 | 0.00 | 88 | 1012.3 |
| 20260904044536 | 61 | 210 | 0.0 | 0.0 | 0.00 | 0.00 | 0.00 | 88 | 1012.2 |
| 20260904044031 | 61 | 210 | 0.0 | 0.0 | 0.00 | 0.00 | 0.00 | 88 | 1012.2 |
| 20260904043526 | 62 | 210 | 0.0 | 0.0 | 0.00 | 0.00 | 0.00 | 87 | 1012.3 |
| 20260904043018 | 62 | 210 | 0.0 | 0.0 | 0.00 | 0.00 | 0.00 | 86 | 1012.3 |
| 20260904042512 | 62 | 210 | 0.0 | 0.0 | 0.00 | 0.00 | 0.00 | 87 | 1012.3 |
| 20260904042007 | 62 | 210 | 0.0 | 0.0 | 0.00 | 0.00 | 0.00 | 87 | 1012.3 |
| 20260904041500 | 62 | 210 | 0.0 | 0.0 | 0.00 | 0.00 | 0.00 | 87 | 1012.3 |
| 20260904040955 | 62 | 194 | 0.0 | 0.0 | 0.00 | 0.00 | 0.00 | 87 | 1012.3 |
| 20260904040715 | 62 | 211 | 0.0 | 0.0 | 0.00 | 0.00 | 0.00 | 86 | 1012.1 |
| 20260904035942 | 62 | 182 | 0.0 | 0.0 | 0.00 | 0.00 | 0.00 | 86 | 1011.8 |
| 20260904035436 | 62 | 202 | 0.0 | 0.0 | 0.00 | 0.00 | 0.00 | 86 | 1011.9 |
| 20260904034930 | 62 | 206 | 0.0 | 0.0 | 0.00 | 0.00 | 0.00 | 86 | 1011.9 |
| 20260904034424 | 62 | 193 | 0.0 | 0.0 | 0.00 | 0.00 | 0.00 | 86 | 1011.9 |
| 20260904034138 | 62 | 198 | 0.0 | 0.0 | 0.00 | 0.00 | 0.00 | 86 | 1011.9 |
| 20260904033638 | 62 | 188 | 0.0 | 0.0 | 0.00 | 0.00 | 0.00 | 85 | 1011.9 |
| 20260904032919 | 63 | 219 | 0.0 | 0.0 | 0.00 | 0.00 | 0.00 | 85 | 1011.8 |
| 20260904032645 | 63 | 213 | 0.0 | 0.0 | 0.00 | 0.00 | 0.00 | 84 | 1011.8 |
| 20260904031918 | 63 | 210 | 0.0 | 0.0 | 0.00 | 0.00 | 0.00 | 84 | 1011.7 |
| 20260904031418 | 63 | 201 | 0.0 | 5.0 | 0.00 | 0.00 | 0.00 | 84 | 1011.6 |
| 20260904030920 | 63 | 207 | 0.0 | 5.0 | 0.00 | 0.00 | 0.00 | 84 | 1011.7 |
| 20260904030417 | 63 | 204 | 1.0 | 5.0 | 0.00 | 0.00 | 0.00 | 80 | 1011.6 |
| 20260904030141 | 64 | 206 | 1.0 | 5.0 | 0.00 | 0.00 | 0.00 | 80 | 1011.6 |
| 20260904025417 | 64 | 208 | 0.0 | 4.0 | 0.00 | 0.00 | 0.00 | 80 | 1011.6 |
| 20260904024917 | 64 | 207 | 0.0 | 4.0 | 0.00 | 0.00 | 0.00 | 80 | 1011.5 |
| 20260904024418 | 64 | 210 | 0.0 | 4.0 | 0.00 | 0.00 | 0.00 | 80 | 1011.4 |
| 20260904024142 | 65 | 213 | 0.0 | 6.0 | 0.00 | 0.00 | 0.00 | 80 | 1011.5 |
| 20260904023414 | 65 | 202 | 1.0 | 6.0 | 0.00 | 0.00 | 0.00 | 80 | 1011.5 |
| 20260904022914 | 65 | 217 | 1.0 | 6.0 | 0.00 | 0.00 | 0.00 | 79 | 1011.5 |
| 20260904022411 | 65 | 213 | 1.0 | 6.0 | 0.00 | 0.00 | 0.00 | 78 | 1011.5 |
| 20260904022132 | 66 | 221 | 0.0 | 0.0 | 0.00 | 0.00 | 0.00 | 77 | 1011.5 |
| 20260904021409 | 66 | 223 | 0.0 | 0.0 | 0.00 | 0.00 | 0.00 | 76 | 1011.6 |
| 20260904020903 | 67 | 211 | 0.0 | 0.0 | 0.00 | 0.00 | 0.00 | 75 | 1011.6 |
| 20260904020357 | 67 | 231 | 0.0 | 0.0 | 0.00 | 0.00 | 0.00 | 75 | 1011.6 |
| 20260904015851 | 67 | 231 | 0.0 | 0.0 | 0.00 | 0.00 | 0.00 | 73 | 1011.6 |
| 20260904015606 | 68 | 231 | 0.0 | 0.0 | 0.00 | 0.00 | 0.00 | 72 | 1011.6 |
| 20260904014839 | 68 | 223 | 0.0 | 0.0 | 0.00 | 0.00 | 0.00 | 71 | 1011.7 |
| 20260904014333 | 69 | 169 | 0.0 | 0.0 | 0.00 | 0.00 | 0.00 | 70 | 1011.7 |
| 20260904013830 | 69 | 248 | 0.0 | 0.0 | 0.00 | 0.00 | 0.00 | 69 | 1011.7 |
| 20260904013803 | 69 | 232 | 0.0 | 5.0 | 0.00 | 0.00 | 0.00 | 68 | 1011.7 |
| 20260904013042 | 70 | 214 | 0.0 | 5.0 | 0.00 | 0.00 | 0.00 | 68 | 1011.7 |
| 20260904012527 | 70 | 215 | 1.0 | 7.0 | 0.00 | 0.00 | 0.00 | 68 | 1011.8 |
| 20260904011804 | 70 | 192 | 1.0 | 7.0 | 0.00 | 0.00 | 0.00 | 67 | 1011.6 |
| 20260904011258 | 70 | 246 | 1.0 | 7.0 | 0.00 | 0.00 | 0.00 | 67 | 1011.6 |
| 20260904011012 | 71 | 169 | 1.0 | 7.0 | 0.00 | 0.00 | 0.00 | 66 | 1011.6 |
| 20260904010245 | 71 | 243 | 1.0 | 6.0 | 0.00 | 0.00 | 0.00 | 66 | 1011.6 |
| 20260904005739 | 71 | 214 | 1.0 | 6.0 | 0.00 | 0.00 | 0.00 | 66 | 1011.5 |
| 20260904005233 | 71 | 241 | 2.0 | 9.0 | 0.00 | 0.00 | 0.00 | 66 | 1011.6 |
| 20260904004727 | 71 | 223 | 2.0 | 9.0 | 0.00 | 0.00 | 0.00 | 67 | 1011.6 |
| 20260904004221 | 71 | 233 | 2.0 | 10.0 | 0.00 | 0.00 | 0.00 | 67 | 1011.7 |
| 20260904003716 | 72 | 223 | 2.0 | 10.0 | 0.00 | 0.00 | 0.00 | 66 | 1011.6 |
| 20260904003209 | 72 | 223 | 1.0 | 8.0 | 0.00 | 0.00 | 0.00 | 66 | 1011.6 |
| 20260904002925 | 72 | 223 | 2.0 | 9.0 | 0.00 | 0.00 | 0.00 | 66 | 1011.7 |
| 20260904002204 | 72 | 286 | 3.0 | 9.0 | 0.00 | 0.00 | 0.00 | 66 | 1011.8 |
| 20260904001700 | 73 | 213 | 2.0 | 9.0 | 0.00 | 0.00 | 0.00 | 65 | 1011.8 |
| 20260904001159 | 73 | 182 | 3.0 | 9.0 | 0.00 | 0.00 | 0.00 | 65 | 1011.8 |
| 20260904000916 | 73 | 180 | 3.0 | 9.0 | 0.00 | 0.00 | 0.00 | 64 | 1011.8 |
| 20260904000425 | 73 | 269 | 3.0 | 11.0 | 0.00 | 0.00 | 0.00 | 64 | 1011.9 |
| 20260903235656 | 74 | 259 | 2.0 | 11.0 | 0.00 | 0.00 | 0.00 | 64 | 1011.9 |
| 20260903235201 | 74 | 228 | 3.0 | 11.0 | 0.00 | 0.00 | 0.00 | 64 | 1011.7 |
| 20260903234658 | 74 | 248 | 4.0 | 11.0 | 0.00 | 0.00 | 0.00 | 64 | 1011.8 |
| 20260903234154 | 74 | 252 | 4.0 | 12.0 | 0.00 | 0.00 | 0.00 | 64 | 1011.8 |
| 20260903233921 | 74 | 180 | 4.0 | 12.0 | 0.00 | 0.00 | 0.00 | 64 | 1011.7 |
| 20260903233154 | 75 | 237 | 3.0 | 11.0 | 0.00 | 0.00 | 0.00 | 62 | 1011.8 |
| 20260903232655 | 75 | 210 | 3.0 | 10.0 | 0.00 | 0.00 | 0.00 | 61 | 1011.8 |
| 20260903232417 | 76 | 250 | 4.0 | 10.0 | 0.00 | 0.00 | 0.00 | 60 | 1012.0 |
| 20260903231654 | 76 | 217 | 4.0 | 10.0 | 0.00 | 0.00 | 0.00 | 60 | 1011.7 |
| 20260903231153 | 76 | 184 | 3.0 | 10.0 | 0.00 | 0.00 | 0.00 | 60 | 1011.7 |
| 20260903230653 | 76 | 221 | 3.0 | 9.0 | 0.00 | 0.00 | 0.00 | 60 | 1011.8 |
| 20260903230151 | 76 | 207 | 2.0 | 11.0 | 0.00 | 0.00 | 0.00 | 59 | 1012.0 |
| 20260903225648 | 76 | 229 | 2.0 | 11.0 | 0.00 | 0.00 | 0.00 | 58 | 1011.9 |
| 20260903225152 | 76 | 205 | 4.0 | 12.0 | 0.00 | 0.00 | 0.00 | 58 | 1012.0 |
| 20260903224916 | 76 | 244 | 3.0 | 12.0 | 0.00 | 0.00 | 0.00 | 57 | 1012.1 |
| 20260903224140 | 76 | 225 | 4.0 | 12.0 | 0.00 | 0.00 | 0.00 | 57 | 1012.1 |
| 20260903223634 | 76 | 253 | 4.0 | 12.0 | 0.00 | 0.00 | 0.00 | 55 | 1011.9 |
| 20260903223128 | 76 | 234 | 4.0 | 11.0 | 0.00 | 0.00 | 0.00 | 56 | 1012.0 |
| 20260903222622 | 77 | 225 | 4.0 | 13.0 | 0.00 | 0.00 | 0.00 | 54 | 1012.1 |
| 20260903222116 | 77 | 213 | 4.0 | 13.0 | 0.00 | 0.00 | 0.00 | 56 | 1012.0 |
| 20260903221611 | 77 | 197 | 4.0 | 10.0 | 0.00 | 0.00 | 0.00 | 52 | 1012.0 |
| 20260903221104 | 77 | 163 | 3.0 | 11.0 | 0.00 | 0.00 | 0.00 | 55 | 1012.1 |
| 20260903220820 | 77 | 242 | 2.0 | 14.0 | 0.00 | 0.00 | 0.00 | 56 | 1012.2 |
| 20260903220314 | 78 | 217 | 2.0 | 14.0 | 0.00 | 0.00 | 0.00 | 56 | 1012.3 |
| 20260903215546 | 78 | 173 | 4.0 | 16.0 | 0.00 | 0.00 | 0.00 | 57 | 1012.2 |
| 20260903215040 | 77 | 229 | 4.0 | 16.0 | 0.00 | 0.00 | 0.00 | 57 | 1012.3 |
| 20260903215014 | 77 | 175 | 5.0 | 16.0 | 0.00 | 0.00 | 0.00 | 57 | 1012.3 |
| 20260903214028 | 77 | 254 | 8.0 | 16.0 | 0.00 | 0.00 | 0.00 | 56 | 1012.3 |
| 20260903213535 | 77 | 238 | 9.0 | 16.0 | 0.00 | 0.00 | 0.00 | 59 | 1012.3 |
| 20260903213016 | 78 | 240 | 8.0 | 16.0 | 0.00 | 0.00 | 0.00 | 58 | 1012.4 |
| 20260903212510 | 78 | 227 | 8.0 | 16.0 | 0.00 | 0.00 | 0.00 | 57 | 1012.4 |
| 20260903212005 | 78 | 250 | 5.0 | 16.0 | 0.00 | 0.00 | 0.00 | 56 | 1012.3 |
| 20260903211458 | 78 | 243 | 4.0 | 14.0 | 0.00 | 0.00 | 0.00 | 56 | 1012.4 |
| 20260903210952 | 78 | 208 | 6.0 | 14.0 | 0.00 | 0.00 | 0.00 | 53 | 1012.2 |
| 20260903210446 | 78 | 275 | 7.0 | 14.0 | 0.00 | 0.00 | 0.00 | 54 | 1012.4 |
| 20260903205941 | 79 | 210 | 6.0 | 14.0 | 0.00 | 0.00 | 0.00 | 54 | 1012.4 |
| 20260903205635 | 78 | 261 | 7.0 | 14.0 | 0.00 | 0.00 | 0.00 | 56 | 1012.3 |
| 20260903205521 | 78 | 235 | 6.0 | 12.0 | 0.00 | 0.00 | 0.00 | 56 | 1012.3 |
| 20260903204422 | 78 | 224 | 6.0 | 14.0 | 0.00 | 0.00 | 0.00 | 56 | 1012.4 |
| 20260903204149 | 79 | 254 | 4.0 | 14.0 | 0.00 | 0.00 | 0.00 | 56 | 1012.4 |
| 20260903203410 | 79 | 225 | 4.0 | 15.0 | 0.00 | 0.00 | 0.00 | 55 | 1012.4 |
| 20260903203127 | 79 | 227 | 5.0 | 15.0 | 0.00 | 0.00 | 0.00 | 55 | 1012.4 |
| 20260903202357 | 79 | 201 | 6.0 | 15.0 | 0.00 | 0.00 | 0.00 | 56 | 1012.4 |
| 20260903201852 | 79 | 234 | 4.0 | 15.0 | 0.00 | 0.00 | 0.00 | 55 | 1012.5 |
| 20260903201346 | 80 | 271 | 2.0 | 12.0 | 0.00 | 0.00 | 0.00 | 55 | 1012.6 |
| 20260903201058 | 80 | 177 | 2.0 | 12.0 | 0.00 | 0.00 | 0.00 | 55 | 1012.6 |
| 20260903200334 | 80 | 240 | 1.0 | 9.0 | 0.00 | 0.00 | 0.00 | 54 | 1012.7 |
| 20260903195828 | 80 | 203 | 2.0 | 12.0 | 0.00 | 0.00 | 0.00 | 53 | 1012.7 |
| 20260903195322 | 80 | 241 | 3.0 | 12.0 | 0.00 | 0.00 | 0.00 | 54 | 1012.7 |
| 20260903194815 | 80 | 269 | 3.0 | 11.0 | 0.00 | 0.00 | 0.00 | 53 | 1012.7 |
| 20260903194310 | 80 | 232 | 1.0 | 10.0 | 0.00 | 0.00 | 0.00 | 53 | 1012.8 |
| 20260903193804 | 79 | 192 | 3.0 | 10.0 | 0.00 | 0.00 | 0.00 | 53 | 1012.8 |
| 20260903193525 | 80 | 278 | 3.0 | 10.0 | 0.00 | 0.00 | 0.00 | 51 | 1012.9 |
| 20260903192752 | 80 | 270 | 2.0 | 8.0 | 0.00 | 0.00 | 0.00 | 49 | 1012.9 |
| 20260903192516 | 80 | 252 | 2.0 | 8.0 | 0.00 | 0.00 | 0.00 | 48 | 1012.9 |
| 20260903191740 | 81 | 258 | 1.0 | 7.0 | 0.00 | 0.00 | 0.00 | 47 | 1013.0 |
| 20260903191453 | 81 | 261 | 1.0 | 7.0 | 0.00 | 0.00 | 0.00 | 44 | 1013.0 |
| 20260903190729 | 81 | 269 | 1.0 | 7.0 | 0.00 | 0.00 | 0.00 | 36 | 1013.2 |
| 20260903190223 | 81 | 196 | 1.0 | 7.0 | 0.00 | 0.00 | 0.00 | 33 | 1013.2 |
| 20260903185935 | 81 | 244 | 1.0 | 7.0 | 0.00 | 0.00 | 0.00 | 32 | 1013.3 |
| 20260903185210 | 80 | 162 | 1.0 | 8.0 | 0.00 | 0.00 | 0.00 | 33 | 1013.4 |
| 20260903184704 | 80 | 234 | 0.0 | 8.0 | 0.00 | 0.00 | 0.00 | 35 | 1013.6 |
| 20260903184159 | 80 | 213 | 0.0 | 6.0 | 0.00 | 0.00 | 0.00 | 35 | 1013.8 |
| 20260903183653 | 80 | 138 | 1.0 | 5.0 | 0.00 | 0.00 | 0.00 | 34 | 1013.8 |
| 20260903183146 | 80 | 143 | 1.0 | 5.0 | 0.00 | 0.00 | 0.00 | 34 | 1013.8 |
| 20260903182640 | 80 | 241 | 0.0 | 5.0 | 0.00 | 0.00 | 0.00 | 33 | 1013.9 |
| 20260903182134 | 79 | 209 | 0.0 | 9.0 | 0.00 | 0.00 | 0.00 | 33 | 1014.0 |
| 20260903181848 | 78 | 229 | 1.0 | 9.0 | 0.00 | 0.00 | 0.00 | 34 | 1014.1 |
| 20260903181122 | 78 | 184 | 1.0 | 8.0 | 0.00 | 0.00 | 0.00 | 33 | 1014.0 |
| 20260903180617 | 77 | 199 | 0.0 | 6.0 | 0.00 | 0.00 | 0.00 | 35 | 1014.1 |
| 20260903180110 | 77 | 128 | 0.0 | 3.0 | 0.00 | 0.00 | 0.00 | 35 | 1014.0 |
| 20260903175605 | 77 | 92 | 0.0 | 5.0 | 0.00 | 0.00 | 0.00 | 36 | 1014.0 |
| 20260903175059 | 76 | 15 | 0.0 | 5.0 | 0.00 | 0.00 | 0.00 | 40 | 1014.1 |
| 20260903175042 | 76 | 234 | 1.0 | 5.0 | 0.00 | 0.00 | 0.00 | 40 | 1014.1 |
| 20260903174047 | 76 | 177 | 0.0 | 5.0 | 0.00 | 0.00 | 0.00 | 40 | 1014.2 |
| 20260903173540 | 76 | 141 | 0.0 | 4.0 | 0.00 | 0.00 | 0.00 | 43 | 1014.2 |
| 20260903173035 | 75 | 217 | 0.0 | 4.0 | 0.00 | 0.00 | 0.00 | 45 | 1014.1 |
| 20260903172528 | 75 | 205 | 0.0 | 4.0 | 0.00 | 0.00 | 0.00 | 47 | 1014.2 |
| 20260903172241 | 74 | 151 | 1.0 | 6.0 | 0.00 | 0.00 | 0.00 | 46 | 1014.1 |
| 20260903171737 | 74 | 128 | 1.0 | 6.0 | 0.00 | 0.00 | 0.00 | 50 | 1014.1 |
| 20260903171011 | 73 | 121 | 0.0 | 7.0 | 0.00 | 0.00 | 0.00 | 52 | 1014.2 |
| 20260903170505 | 73 | 172 | 0.0 | 7.0 | 0.00 | 0.00 | 0.00 | 53 | 1014.2 |
| 20260903170221 | 73 | 92 | 1.0 | 7.0 | 0.00 | 0.00 | 0.00 | 54 | 1014.2 |
| 20260903165454 | 73 | 106 | 0.0 | 7.0 | 0.00 | 0.00 | 0.00 | 53 | 1014.1 |
| 20260903164946 | 73 | 84 | 0.0 | 0.0 | 0.00 | 0.00 | 0.00 | 58 | 1014.1 |
| 20260903164441 | 72 | 355 | 0.0 | 0.0 | 0.00 | 0.00 | 0.00 | 60 | 1014.2 |
| 20260903163934 | 72 | 124 | 0.0 | 0.0 | 0.00 | 0.00 | 0.00 | 60 | 1014.2 |
| 20260903163428 | 71 | 240 | 0.0 | 0.0 | 0.00 | 0.00 | 0.00 | 60 | 1014.2 |
| 20260903162922 | 71 | 170 | 0.0 | 0.0 | 0.00 | 0.00 | 0.00 | 64 | 1014.1 |
| 20260903162416 | 70 | 128 | 0.0 | 0.0 | 0.00 | 0.00 | 0.00 | 64 | 1014.1 |
| 20260903161910 | 70 | 126 | 0.0 | 0.0 | 0.00 | 0.00 | 0.00 | 66 | 1014.0 |
| 20260903161406 | 70 | 171 | 0.0 | 0.0 | 0.00 | 0.00 | 0.00 | 68 | 1014.0 |
| 20260903161121 | 70 | 104 | 0.0 | 0.0 | 0.00 | 0.00 | 0.00 | 66 | 1014.1 |
| 20260903160353 | 70 | 163 | 0.0 | 0.0 | 0.00 | 0.00 | 0.00 | 71 | 1014.2 |
| 20260903155846 | 69 | 173 | 0.0 | 0.0 | 0.00 | 0.00 | 0.00 | 72 | 1014.2 |
| 20260903155340 | 68 | 105 | 0.0 | 0.0 | 0.00 | 0.00 | 0.00 | 76 | 1014.3 |
| 20260903154835 | 68 | 32 | 0.0 | 0.0 | 0.00 | 0.00 | 0.00 | 78 | 1014.2 |
| 20260903154556 | 67 | 24 | 0.0 | 0.0 | 0.00 | 0.00 | 0.00 | 78 | 1014.3 |
| 20260903154045 | 67 | 85 | 0.0 | 0.0 | 0.00 | 0.00 | 0.00 | 78 | 1014.4 |
| 20260903153317 | 67 | 71 | 0.0 | 0.0 | 0.00 | 0.00 | 0.00 | 79 | 1014.4 |
| 20260903152810 | 67 | 11 | 0.0 | 0.0 | 0.00 | 0.00 | 0.00 | 80 | 1014.4 |
| 20260903152306 | 67 | 27 | 0.0 | 0.0 | 0.00 | 0.00 | 0.00 | 81 | 1014.4 |
| 20260903151758 | 66 | 53 | 0.0 | 0.0 | 0.00 | 0.00 | 0.00 | 82 | 1014.4 |
| 20260903151252 | 66 | 19 | 0.0 | 0.0 | 0.00 | 0.00 | 0.00 | 83 | 1014.4 |
| 20260903150746 | 65 | 90 | 0.0 | 0.0 | 0.00 | 0.00 | 0.00 | 82 | 1014.3 |
| 20260903150502 | 64 | 102 | 0.0 | 0.0 | 0.00 | 0.00 | 0.00 | 85 | 1014.4 |
| 20260903145953 | 63 | 201 | 0.0 | 0.0 | 0.00 | 0.00 | 0.00 | 89 | 1014.4 |
| 20260903145228 | 63 | 246 | 0.0 | 0.0 | 0.00 | 0.00 | 0.00 | 91 | 1014.4 |
| 20260903144722 | 62 | 246 | 0.0 | 0.0 | 0.00 | 0.00 | 0.00 | 91 | 1014.3 |
| 20260903144216 | 62 | 246 | 0.0 | 0.0 | 0.00 | 0.00 | 0.00 | 90 | 1014.2 |
| 20260903143937 | 62 | 211 | 0.0 | 0.0 | 0.00 | 0.00 | 0.00 | 93 | 1014.2 |
| 20260903143204 | 62 | 254 | 0.0 | 0.0 | 0.00 | 0.00 | 0.00 | 94 | 1014.2 |
| 20260903142659 | 62 | 254 | 0.0 | 0.0 | 0.00 | 0.00 | 0.00 | 94 | 1014.0 |
| 20260903142152 | 61 | 254 | 0.0 | 0.0 | 0.00 | 0.00 | 0.00 | 94 | 1014.1 |
| 20260903141646 | 61 | 254 | 0.0 | 0.0 | 0.00 | 0.00 | 0.00 | 95 | 1014.0 |
| 20260903141140 | 60 | 254 | 0.0 | 0.0 | 0.00 | 0.00 | 0.00 | 95 | 1014.0 |
| 20260903140634 | 60 | 254 | 0.0 | 0.0 | 0.00 | 0.00 | 0.00 | 95 | 1013.9 |
| 20260903140128 | 60 | 254 | 0.0 | 0.0 | 0.00 | 0.00 | 0.00 | 95 | 1014.0 |
| 20260903135622 | 59 | 254 | 0.0 | 0.0 | 0.00 | 0.00 | 0.00 | 95 | 1013.8 |
| 20260903135116 | 59 | 254 | 0.0 | 0.0 | 0.00 | 0.00 | 0.00 | 95 | 1013.8 |
| 20260903134610 | 58 | 254 | 0.0 | 0.0 | 0.00 | 0.00 | 0.00 | 95 | 1013.7 |
| 20260903134105 | 58 | 254 | 0.0 | 0.0 | 0.00 | 0.00 | 0.00 | 95 | 1013.8 |
| 20260903133558 | 58 | 254 | 0.0 | 0.0 | 0.00 | 0.00 | 0.00 | 95 | 1013.7 |